Perez Atmospheric Data: 05/15/2019 Summary  Detailed Graphs  Station List

  Temperature     Wind Precipitation Visibility
Timestamp Air Wet
Bulb
Dew-
point
24-hr
Max
24-hr
Min
Relative
Humidity
Atmospheric
Pressure
Avg
Speed
Avg
Dir
Spot
Speed
Spot
Dir
Max
Speed
Max
Dir
  Rate Situation Start End 1 hr 3 hr 6 hr 12 hr 24 hr   Situation
Date Time °F °F °F °F °F % in Hg mph ° mph ° mph ° Y/N in/hr text Date Time Date Time in in in in in mi text
05/15/2019 12:00 AM 50.36 44.06 37.04 62.24 49.28 60.0 Not Reported 2.46 SE 2.68 E 4.25 SE No 0.000 No Precipitation     0.000 0.000 0.000 0.000 0.000 Not Reported Not Reported
05/15/2019 12:05 AM 50.18 44.06 37.04 62.24 49.28 60.0 Not Reported 3.13 SE 3.80 SE 4.25 SE No 0.000 No Precipitation     0.000 0.000 0.000 0.000 0.000 Not Reported Not Reported
05/15/2019 12:10 AM 50.54 44.06 36.86 62.24 49.28 59.0 Not Reported 2.68 SE 2.91 SE 3.80 SE No 0.000 No Precipitation     0.000 0.000 0.000 0.000 0.000 Not Reported Not Reported
05/15/2019 12:15 AM 50.90 44.42 37.04 62.24 49.28 58.0 Not Reported 2.91 SE 3.13 SE 3.80 SE No 0.000 No Precipitation     0.000 0.000 0.000 0.000 0.000 Not Reported Not Reported
05/15/2019 12:20 AM 50.90 44.24 37.04 62.24 49.28 58.0 Not Reported 3.13 SE 3.80 SE 4.25 SE No 0.000 No Precipitation     0.000 0.000 0.000 0.000 0.000 Not Reported Not Reported
05/15/2019 12:25 AM 50.54 44.24 37.04 62.24 49.28 59.0 Not Reported 4.25 SE 3.13 SE 4.25 SE No 0.000 No Precipitation     0.000 0.000 0.000 0.000 0.000 Not Reported Not Reported
05/15/2019 12:30 AM 50.18 44.06 37.22 62.24 49.28 60.0 Not Reported 3.36 SE 2.91 SE 5.14 SE No 0.000 No Precipitation     0.000 0.000 0.000 0.000 0.000 Not Reported Not Reported
05/15/2019 12:35 AM 50.36 44.06 37.04 62.24 49.28 59.0 Not Reported 3.13 SE 4.25 SE 5.14 SE No 0.000 No Precipitation     0.000 0.000 0.000 0.000 0.000 Not Reported Not Reported
05/15/2019 12:40 AM 50.36 44.06 37.04 62.24 49.28 60.0 Not Reported 3.58 SE 3.58 SE 4.25 SE No 0.000 No Precipitation     0.000 0.000 0.000 0.000 0.000 Not Reported Not Reported
05/15/2019 12:45 AM 50.54 44.24 37.04 62.24 49.28 59.0 Not Reported 4.03 SE 3.80 SE 4.25 SE No 0.000 No Precipitation     0.000 0.000 0.000 0.000 0.000 Not Reported Not Reported
05/15/2019 12:50 AM 50.72 44.24 37.04 62.24 49.28 59.0 Not Reported 3.58 SE 5.82 SE 5.82 SE No 0.000 No Precipitation     0.000 0.000 0.000 0.000 0.000 Not Reported Not Reported
05/15/2019 12:55 AM 50.72 44.24 37.04 62.24 49.28 59.0 Not Reported 1.12 SE 1.57 S 5.82 SE No 0.000 No Precipitation     0.000 0.000 0.000 0.000 0.000 Not Reported Not Reported
05/15/2019 01:00 AM 50.90 44.42 36.86 62.24 49.28 58.0 Not Reported 2.01 SE 1.57 SE 3.80 S No 0.000 No Precipitation     0.000 0.000 0.000 0.000 0.000 Not Reported Not Reported
05/15/2019 01:05 AM 50.90 44.24 36.68 62.24 49.28 58.0 Not Reported 2.24 SE 1.34 SE 3.80 S No 0.000 No Precipitation     0.000 0.000 0.000 0.000 0.000 Not Reported Not Reported
05/15/2019 01:10 AM 50.72 44.06 36.68 62.24 49.28 58.0 Not Reported 1.34 SE 1.34 SE 3.13 SE No 0.000 No Precipitation     0.000 0.000 0.000 0.000 0.000 Not Reported Not Reported
05/15/2019 01:15 AM 51.08 44.24 36.50 62.24 49.28 57.0 Not Reported 2.68 SE 4.92 SE 3.13 SE No 0.000 No Precipitation     0.000 0.000 0.000 0.000 0.000 Not Reported Not Reported
05/15/2019 01:20 AM 51.44 44.42 36.50 62.24 49.28 56.0 Not Reported 2.91 S 2.68 SW 4.92 SE No 0.000 No Precipitation     0.000 0.000 0.000 0.000 0.000 Not Reported Not Reported
05/15/2019 01:25 AM 51.44 44.42 36.50 62.24 49.28 56.0 Not Reported 2.91 SE 3.36 SE 4.92 SE No 0.000 No Precipitation     0.000 0.000 0.000 0.000 0.000 Not Reported Not Reported
05/15/2019 01:30 AM 51.44 44.42 36.68 62.24 49.28 56.0 Not Reported 3.13 SE 3.36 SE 3.80 SE No 0.000 No Precipitation     0.000 0.000 0.000 0.000 0.000 Not Reported Not Reported
05/15/2019 01:35 AM 51.44 44.60 36.86 62.24 49.28 57.0 Not Reported 3.13 SE 1.79 S 3.80 SE No 0.000 No Precipitation     0.000 0.000 0.000 0.000 0.000 Not Reported Not Reported
05/15/2019 01:40 AM 51.26 44.42 36.86 62.24 49.28 57.0 Not Reported 3.58 SE 3.80 SE 4.25 SE No 0.000 No Precipitation     0.000 0.000 0.000 0.000 0.000 Not Reported Not Reported
05/15/2019 01:45 AM 51.44 44.60 37.04 62.24 49.28 57.0 Not Reported 3.13 SE 2.01 SE 4.25 SE No 0.000 No Precipitation     0.000 0.000 0.000 0.000 0.000 Not Reported Not Reported
05/15/2019 01:50 AM 51.26 44.60 37.04 62.24 49.28 57.0 Not Reported 2.01 SE 2.01 SE 4.03 SE No 0.000 No Precipitation     0.000 0.000 0.000 0.000 0.000 Not Reported Not Reported
05/15/2019 01:55 AM 50.90 44.24 37.04 62.24 49.28 58.0 Not Reported 1.79 S 1.57 SE 4.03 SE No 0.000 No Precipitation     0.000 0.000 0.000 0.000 0.000 Not Reported Not Reported
05/15/2019 02:00 AM 51.08 44.42 37.04 62.24 49.28 58.0 Not Reported 1.79 SE 2.24 SE 3.58 SE No 0.000 No Precipitation     0.000 0.000 0.000 0.000 0.000 Not Reported Not Reported
05/15/2019 02:05 AM 51.26 44.42 36.86 62.24 49.28 57.0 Not Reported 4.03 SE 2.24 SE 3.58 SE No 0.000 No Precipitation     0.000 0.000 0.000 0.000 0.000 Not Reported Not Reported
05/15/2019 02:10 AM 51.44 44.42 36.68 62.24 49.28 56.0 Not Reported 3.13 SE 3.36 SE 5.14 SE No 0.000 No Precipitation     0.000 0.000 0.000 0.000 0.000 Not Reported Not Reported
05/15/2019 02:15 AM 51.44 44.42 36.50 62.24 49.28 56.0 Not Reported 2.91 SE 4.03 S 5.14 SE No 0.000 No Precipitation     0.000 0.000 0.000 0.000 0.000 Not Reported Not Reported
05/15/2019 02:20 AM 51.44 44.42 36.50 62.24 49.28 56.0 Not Reported 3.36 SE 4.03 S 5.82 SE No 0.000 No Precipitation     0.000 0.000 0.000 0.000 0.000 Not Reported Not Reported
05/15/2019 02:25 AM 51.44 44.24 36.32 62.24 49.28 56.0 Not Reported 5.14 SE 4.25 SE 5.82 SE No 0.000 No Precipitation     0.000 0.000 0.000 0.000 0.000 Not Reported Not Reported
05/15/2019 02:30 AM 51.44 44.42 36.32 62.24 49.28 55.0 Not Reported 4.70 SE 4.03 SE 6.26 SE No 0.000 No Precipitation     0.000 0.000 0.000 0.000 0.000 Not Reported Not Reported
05/15/2019 02:35 AM 51.44 44.24 36.32 62.24 49.28 56.0 Not Reported 4.70 SE 4.47 SE 6.26 SE No 0.000 No Precipitation     0.000 0.000 0.000 0.000 0.000 Not Reported Not Reported
05/15/2019 02:40 AM 51.26 44.24 36.50 62.24 49.28 56.0 Not Reported 4.25 SE 3.36 SE 5.82 SE No 0.000 No Precipitation     0.000 0.000 0.000 0.000 0.000 Not Reported Not Reported
05/15/2019 02:45 AM 51.08 44.24 36.50 62.24 49.28 57.0 Not Reported 3.58 SE 2.68 SE 5.82 SE No 0.000 No Precipitation     0.000 0.000 0.000 0.000 0.000 Not Reported Not Reported
05/15/2019 02:50 AM 50.90 44.06 36.50 62.24 49.28 57.0 Not Reported 4.03 SE 4.25 SE 4.25 SE No 0.000 No Precipitation     0.000 0.000 0.000 0.000 0.000 Not Reported Not Reported
05/15/2019 02:55 AM 50.72 44.06 36.68 62.24 49.28 58.0 Not Reported 4.47 SE 3.80 E 4.25 SE No 0.000 No Precipitation     0.000 0.000 0.000 0.000 0.000 Not Reported Not Reported
05/15/2019 03:00 AM 50.72 44.06 36.68 62.24 49.28 58.0 Not Reported 2.68 SE 2.91 E 4.92 SE No 0.000 No Precipitation     0.000 0.000 0.000 0.000 0.000 Not Reported Not Reported
05/15/2019 03:05 AM 50.90 44.24 36.86 62.24 49.28 58.0 Not Reported 2.46 E 2.24 SE 4.92 SE No 0.000 No Precipitation     0.000 0.000 0.000 0.000 0.000 Not Reported Not Reported
05/15/2019 03:10 AM 50.72 44.06 36.68 62.24 49.28 58.0 Not Reported 1.57 E 1.12 E 2.91 SE No 0.000 No Precipitation     0.000 0.000 0.000 0.000 0.000 Not Reported Not Reported
05/15/2019 03:15 AM 50.90 44.24 36.86 62.24 49.28 58.0 Not Reported 1.79 E 2.24 SE 2.91 SE No 0.000 No Precipitation     0.000 0.000 0.000 0.000 0.000 Not Reported Not Reported
05/15/2019 03:20 AM 50.90 44.24 37.04 62.24 49.28 58.0 Not Reported 1.12 SE 0.22 SE 2.91 SE No 0.000 No Precipitation     0.000 0.000 0.000 0.000 0.000 Not Reported Not Reported
05/15/2019 03:25 AM 51.08 44.42 37.04 62.24 49.28 58.0 Not Reported 0.45 S 0.00 E 2.91 SE No 0.000 No Precipitation     0.000 0.000 0.000 0.000 0.000 Not Reported Not Reported
05/15/2019 03:30 AM 50.54 44.24 37.22 62.24 49.28 60.0 Not Reported 0.00 SE 0.00 E 1.34 E No 0.000 No Precipitation     0.000 0.000 0.000 0.000 0.000 Not Reported Not Reported
05/15/2019 03:35 AM 49.64 43.70 37.22 62.24 49.28 62.0 Not Reported 0.22 NW 2.01 NW 1.34 E No 0.000 No Precipitation     0.000 0.000 0.000 0.000 0.000 Not Reported Not Reported
05/15/2019 03:40 AM 49.10 43.70 37.58 62.24 49.10 64.0 Not Reported 0.89 NW 0.89 NW 2.01 NW No 0.000 No Precipitation     0.000 0.000 0.000 0.000 0.000 Not Reported Not Reported
05/15/2019 03:45 AM 49.28 43.70 37.58 62.24 48.92 64.0 Not Reported 0.45 NW 0.89 W 2.01 NW No 0.000 No Precipitation     0.000 0.000 0.000 0.000 0.000 Not Reported Not Reported
05/15/2019 03:50 AM 48.92 43.52 37.58 62.24 48.92 64.0 Not Reported 0.89 W 1.34 W 1.57 NW No 0.000 No Precipitation     0.000 0.000 0.000 0.000 0.000 Not Reported Not Reported
05/15/2019 03:55 AM 48.92 43.70 37.76 62.24 48.74 65.0 Not Reported 0.67 NW 1.34 W 1.57 NW No 0.000 No Precipitation     0.000 0.000 0.000 0.000 0.000 Not Reported Not Reported
05/15/2019 04:00 AM 48.74 43.70 37.94 62.24 48.56 65.0 Not Reported 0.67 NW 0.00 N 2.24 NW No 0.000 No Precipitation     0.000 0.000 0.000 0.000 0.000 Not Reported Not Reported
05/15/2019 04:05 AM 48.92 43.70 37.94 62.24 48.56 65.0 Not Reported 0.00 SW 0.00 W 2.24 NW No 0.000 No Precipitation     0.000 0.000 0.000 0.000 0.000 Not Reported Not Reported
05/15/2019 04:10 AM 48.92 43.70 37.94 62.24 48.56 65.0 Not Reported 0.67 W 1.12 W 1.12 W No 0.000 No Precipitation     0.000 0.000 0.000 0.000 0.000 Not Reported Not Reported
05/15/2019 04:15 AM 48.38 43.52 37.94 62.24 48.38 67.0 Not Reported 1.79 W 1.12 W 1.12 W No 0.000 No Precipitation     0.000 0.000 0.000 0.000 0.000 Not Reported Not Reported
05/15/2019 04:20 AM 48.02 43.34 38.12 62.24 48.02 68.0 Not Reported 3.13 W 3.80 W 3.80 W No 0.000 No Precipitation     0.000 0.000 0.000 0.000 0.000 Not Reported Not Reported
05/15/2019 04:25 AM 47.66 43.34 38.30 62.24 47.66 69.0 Not Reported 3.80 W 2.91 W 3.80 W No 0.000 No Precipitation     0.000 0.000 0.000 0.000 0.000 Not Reported Not Reported
05/15/2019 04:30 AM 47.84 43.16 38.30 62.24 47.48 69.0 Not Reported 2.46 W 2.91 W 4.03 W No 0.000 No Precipitation     0.000 0.000 0.000 0.000 0.000 Not Reported Not Reported
05/15/2019 04:35 AM 47.84 43.16 38.12 62.24 47.48 68.0 Not Reported 2.01 W 1.57 W 4.03 W No 0.000 No Precipitation     0.000 0.000 0.000 0.000 0.000 Not Reported Not Reported
05/15/2019 04:40 AM 48.02 43.34 38.12 62.24 47.48 68.0 Not Reported 1.34 SW 1.12 SW 3.13 W No 0.000 No Precipitation     0.000 0.000 0.000 0.000 0.000 Not Reported Not Reported
05/15/2019 04:45 AM 48.38 43.34 37.76 62.24 47.48 66.0 Not Reported 2.01 SW 2.46 S 3.13 W No 0.000 No Precipitation     0.000 0.000 0.000 0.000 0.000 Not Reported Not Reported
05/15/2019 04:50 AM 48.74 43.52 37.58 62.24 47.48 65.0 Not Reported 1.79 S 1.79 S 2.68 SW No 0.000 No Precipitation     0.000 0.000 0.000 0.000 0.000 Not Reported Not Reported
05/15/2019 04:55 AM 48.74 43.52 37.76 62.24 47.48 65.0 Not Reported 1.57 S 0.89 S 2.68 SW No 0.000 No Precipitation     0.000 0.000 0.000 0.000 0.000 Not Reported Not Reported
05/15/2019 05:00 AM 48.38 43.52 37.94 62.24 47.48 67.0 Not Reported 2.01 SE 1.57 SE 2.24 SE No 0.000 No Precipitation     0.000 0.000 0.000 0.000 0.000 Not Reported Not Reported
05/15/2019 05:05 AM 48.56 43.52 37.76 62.24 47.48 66.0 Not Reported 1.57 SE 3.58 SE 2.24 SE No 0.000 No Precipitation     0.000 0.000 0.000 0.000 0.000 Not Reported Not Reported
05/15/2019 05:10 AM 48.38 43.52 37.94 62.24 47.48 66.0 Not Reported 1.79 S 1.79 S 3.58 SE No 0.000 No Precipitation     0.000 0.000 0.000 0.000 0.000 Not Reported Not Reported
05/15/2019 05:15 AM 48.38 43.34 37.58 62.24 47.48 65.0 Not Reported 3.13 S 2.01 S 3.58 SE No 0.000 No Precipitation     0.000 0.000 0.000 0.000 0.000 Not Reported Not Reported
05/15/2019 05:20 AM 48.92 43.16 36.68 62.24 47.48 62.0 Not Reported 2.91 S 2.24 SW 4.47 SW No 0.000 No Precipitation     0.000 0.000 0.000 0.000 0.000 Not Reported Not Reported
05/15/2019 05:25 AM 49.46 43.34 36.32 62.24 47.48 60.0 Not Reported 3.36 S 4.70 S 4.47 SW No 0.000 No Precipitation     0.000 0.000 0.000 0.000 0.000 Not Reported Not Reported
05/15/2019 05:30 AM 50.00 43.52 35.96 62.24 47.48 58.0 Not Reported 3.36 S 2.46 S 6.04 S No 0.000 No Precipitation     0.000 0.000 0.000 0.000 0.000 Not Reported Not Reported
05/15/2019 05:35 AM 50.18 43.52 35.60 62.24 47.48 56.0 Not Reported 2.91 S 4.25 S 6.04 S No 0.000 No Precipitation     0.000 0.000 0.000 0.000 0.000 Not Reported Not Reported
05/15/2019 05:40 AM 51.08 43.52 34.70 62.24 47.48 53.0 Not Reported 3.13 S 1.79 SE 4.92 S No 0.000 No Precipitation     0.000 0.000 0.000 0.000 0.000 Not Reported Not Reported
05/15/2019 05:45 AM 51.26 43.70 34.70 62.24 47.48 52.0 Not Reported 3.13 SE 3.58 SE 4.92 S No 0.000 No Precipitation     0.000 0.000 0.000 0.000 0.000 Not Reported Not Reported
05/15/2019 05:50 AM 51.26 43.52 34.52 62.24 47.48 52.0 Not Reported 1.57 S 1.57 S 4.92 SE No 0.000 No Precipitation     0.000 0.000 0.000 0.000 0.000 Not Reported Not Reported
05/15/2019 05:55 AM 51.44 43.52 34.34 62.24 47.48 52.0 Not Reported 2.91 SE 2.68 S 4.92 SE No 0.000 No Precipitation     0.000 0.000 0.000 0.000 0.000 Not Reported Not Reported
05/15/2019 06:00 AM 51.26 43.52 34.70 62.24 47.48 53.0 Not Reported 1.79 S 1.12 S 3.58 SE No 0.000 No Precipitation     0.000 0.000 0.000 0.000 0.000 Not Reported Not Reported
05/15/2019 06:05 AM 50.54 43.34 35.06 62.24 47.48 55.0 Not Reported 2.46 S 2.91 S 3.58 SE No 0.000 No Precipitation     0.000 0.000 0.000 0.000 0.000 Not Reported Not Reported
05/15/2019 06:10 AM 50.00 43.16 35.24 62.24 47.48 56.0 Not Reported 3.58 SW 3.36 SW 3.80 SW No 0.000 No Precipitation     0.000 0.000 0.000 0.000 0.000 Not Reported Not Reported
05/15/2019 06:15 AM 49.82 43.52 36.32 62.24 47.48 59.0 Not Reported 2.91 SW 2.91 S 3.80 SW No 0.000 No Precipitation     0.000 0.000 0.000 0.000 0.000 Not Reported Not Reported
05/15/2019 06:20 AM 49.10 43.34 36.86 62.24 47.48 62.0 Not Reported 5.14 S 6.04 S 6.04 S No 0.000 No Precipitation     0.000 0.000 0.000 0.000 0.000 Not Reported Not Reported
05/15/2019 06:25 AM 49.28 43.52 37.04 62.24 47.48 62.0 Not Reported 6.49 SW 3.80 SW 6.04 S No 0.000 No Precipitation     0.000 0.000 0.000 0.000 0.000 Not Reported Not Reported
05/15/2019 06:30 AM 48.56 43.16 37.04 62.24 47.48 64.0 Not Reported 5.37 S 7.38 S 8.05 S No 0.000 No Precipitation     0.000 0.000 0.000 0.000 0.000 Not Reported Not Reported
05/15/2019 06:35 AM 48.38 43.16 37.22 62.24 47.48 65.0 Not Reported 3.36 S 3.36 SW 8.05 S No 0.000 No Precipitation     0.000 0.000 0.000 0.000 0.000 Not Reported Not Reported
05/15/2019 06:40 AM 48.20 42.98 37.22 62.24 47.48 65.0 Not Reported 2.91 S 2.24 S 6.04 S No 0.000 No Precipitation     0.000 0.000 0.000 0.000 0.000 Not Reported Not Reported
05/15/2019 06:45 AM 48.20 43.16 37.58 62.24 47.48 66.0 Not Reported 1.34 S 1.34 SE 6.04 S No 0.000 No Precipitation     0.000 0.000 0.000 0.000 0.000 Not Reported Not Reported
05/15/2019 06:50 AM 48.02 42.98 37.04 62.24 47.48 65.0 Not Reported 1.12 S 0.89 S 2.68 S No 0.000 No Precipitation     0.000 0.000 0.000 0.000 0.000 Not Reported Not Reported
05/15/2019 06:55 AM 48.02 42.98 37.40 62.24 47.48 66.0 Not Reported 0.00 SE 0.45 S 2.68 S No 0.000 No Precipitation     0.000 0.000 0.000 0.000 0.000 Not Reported Not Reported
05/15/2019 07:00 AM 48.38 43.16 37.40 62.24 47.48 65.0 Not Reported 0.67 E 0.45 E 1.34 S No 0.000 No Precipitation     0.000 0.000 0.000 0.000 0.000 Not Reported Not Reported
05/15/2019 07:05 AM 47.84 42.98 37.40 62.24 47.48 67.0 Not Reported 0.89 SE 0.89 SE 1.34 S No 0.000 No Precipitation     0.000 0.000 0.000 0.000 0.000 Not Reported Not Reported
05/15/2019 07:10 AM 47.66 42.98 37.76 62.24 47.48 68.0 Not Reported 0.89 S 1.34 SE 1.34 SE No 0.000 No Precipitation     0.000 0.000 0.000 0.000 0.000 Not Reported Not Reported
05/15/2019 07:15 AM 48.20 43.34 37.94 62.24 47.48 67.0 Not Reported 1.12 SE 2.01 SE 1.34 SE No 0.000 No Precipitation     0.000 0.000 0.000 0.000 0.000 Not Reported Not Reported
05/15/2019 07:20 AM 48.38 43.70 38.48 62.24 47.48 68.0 Not Reported 1.12 SE 1.12 SE 2.01 SE No 0.000 No Precipitation     0.000 0.000 0.000 0.000 0.000 Not Reported Not Reported
05/15/2019 07:25 AM 48.56 43.88 38.66 62.24 47.48 68.0 Not Reported 0.89 S 1.79 SE 2.01 SE No 0.000 No Precipitation     0.000 0.000 0.000 0.000 0.000 Not Reported Not Reported
05/15/2019 07:30 AM 48.20 43.70 38.66 62.24 47.48 69.0 Not Reported 1.34 SE 1.12 SE 2.01 SE No 0.000 No Precipitation     0.000 0.000 0.000 0.000 0.000 Not Reported Not Reported
05/15/2019 07:35 AM 48.02 44.24 40.10 62.24 47.48 73.0 Not Reported 0.89 SE 1.12 SE 2.01 SE No 0.000 No Precipitation     0.000 0.000 0.000 0.000 0.000 Not Reported Not Reported
05/15/2019 07:40 AM 47.84 44.06 39.92 62.24 47.48 73.0 Not Reported 1.79 S 2.24 S 2.24 S No 0.000 No Precipitation     0.000 0.000 0.000 0.000 0.000 Not Reported Not Reported
05/15/2019 07:45 AM 48.02 43.88 39.38 62.24 47.48 71.0 Not Reported 2.01 SE 2.68 SE 2.24 S No 0.000 No Precipitation     0.000 0.000 0.000 0.000 0.000 Not Reported Not Reported
05/15/2019 07:50 AM 47.66 44.24 40.64 62.24 47.48 76.0 Not Reported 2.91 SE 2.46 SE 3.13 SE No 0.000 No Precipitation     0.000 0.000 0.000 0.000 0.000 Not Reported Not Reported
05/15/2019 07:55 AM 47.48 44.42 41.36 62.24 47.48 78.0 Not Reported 2.24 SE 2.68 SE 3.13 SE No 0.000 No Precipitation     0.000 0.000 0.000 0.000 0.000 Not Reported Not Reported
05/15/2019 08:00 AM 47.48 44.42 41.36 62.24 47.30 79.0 Not Reported 3.36 SE 2.91 SE 3.58 SE No 0.000 No Precipitation     0.000 0.000 0.000 0.000 0.000 Not Reported Not Reported
05/15/2019 08:05 AM 47.48 43.88 40.10 62.24 47.30 75.0 Not Reported 2.91 SE 1.79 SE 3.58 SE No 0.000 No Precipitation     0.000 0.000 0.000 0.000 0.000 Not Reported Not Reported
05/15/2019 08:10 AM 47.84 44.42 40.82 62.24 47.30 76.0 Not Reported 1.79 SE 1.79 S 3.36 SE No 0.000 No Precipitation     0.000 0.000 0.000 0.000 0.000 Not Reported Not Reported
05/15/2019 08:15 AM 48.02 44.06 39.92 62.24 47.30 73.0 Not Reported 2.24 SE 1.12 SE 3.36 SE No 0.000 No Precipitation     0.000 0.000 0.000 0.000 0.000 Not Reported Not Reported
05/15/2019 08:20 AM 48.38 44.60 40.82 62.24 47.30 74.0 Not Reported 0.22 NE 1.57 E 2.91 E No 0.000 No Precipitation     0.000 0.000 0.000 0.000 0.000 Not Reported Not Reported
05/15/2019 08:25 AM 48.38 44.96 41.36 62.24 47.30 76.0 Not Reported 1.57 NE 1.57 E 2.91 E No 0.000 No Precipitation     0.000 0.000 0.000 0.000 0.000 Not Reported Not Reported
05/15/2019 08:30 AM 48.38 45.32 42.26 62.24 47.30 79.0 Not Reported 2.24 SE 2.68 SE 2.68 SE No 0.000 No Precipitation     0.000 0.000 0.000 0.000 0.000 Not Reported Not Reported
05/15/2019 08:35 AM 48.20 45.14 42.08 62.24 47.30 79.0 Not Reported 2.24 E 2.68 SE 2.68 SE No 0.000 No Precipitation     0.000 0.000 0.000 0.000 0.000 Not Reported Not Reported
05/15/2019 08:40 AM 48.38 45.50 42.26 62.24 47.30 79.0 Not Reported 2.24 E 2.46 SE 3.13 E No 0.000 No Precipitation     0.000 0.000 0.000 0.000 0.000 Not Reported Not Reported
05/15/2019 08:45 AM 48.56 45.50 42.62 62.24 47.30 79.0 Not Reported 2.68 E 2.46 E 3.13 E No 0.000 No Precipitation     0.000 0.000 0.000 0.000 0.000 Not Reported Not Reported
05/15/2019 08:50 AM 48.56 45.50 42.44 62.24 47.30 79.0 Not Reported 3.36 E 3.36 E 4.25 E Yes 0.043 Rain Slight 05/15/2019 12:50 AM   0.004 0.004 0.004 0.004 0.004 Not Reported Not Reported
05/15/2019 08:55 AM 48.74 45.32 41.72 62.24 47.30 76.0 Not Reported 4.03 SE 3.13 E 4.25 E No 0.000 No Precipitation 05/15/2019 12:50 AM 05/15/2019 12:55 AM 0.004 0.004 0.004 0.004 0.004 Not Reported Not Reported
05/15/2019 09:00 AM 49.10 45.14 41.18 62.24 47.30 73.0 Not Reported 3.36 SE 1.57 SE 5.37 SE No 0.000 No Precipitation 05/15/2019 12:50 AM 05/15/2019 12:55 AM 0.004 0.004 0.004 0.004 0.004 Not Reported Not Reported
05/15/2019 09:05 AM 49.64 45.50 41.18 62.24 47.30 72.0 Not Reported 3.36 SE 2.91 SE 5.37 SE No 0.000 No Precipitation 05/15/2019 12:50 AM 05/15/2019 12:55 AM 0.004 0.004 0.004 0.004 0.004 Not Reported Not Reported
05/15/2019 09:10 AM 49.82 44.96 39.92 62.24 47.30 68.0 Not Reported 4.25 SE 5.59 SE 5.82 SE No 0.000 No Precipitation 05/15/2019 12:50 AM 05/15/2019 12:55 AM 0.004 0.004 0.004 0.004 0.004 Not Reported Not Reported
05/15/2019 09:15 AM 50.54 45.14 39.38 62.24 47.30 65.0 Not Reported 5.14 SE 4.03 E 5.82 SE No 0.000 No Precipitation 05/15/2019 12:50 AM 05/15/2019 12:55 AM 0.004 0.004 0.004 0.004 0.004 Not Reported Not Reported
05/15/2019 09:20 AM 50.36 44.60 38.12 62.24 47.30 62.0 Not Reported 4.03 SE 5.14 SE 7.38 SE No 0.000 No Precipitation 05/15/2019 12:50 AM 05/15/2019 12:55 AM 0.004 0.004 0.004 0.004 0.004 Not Reported Not Reported
05/15/2019 09:25 AM 50.72 44.60 37.94 62.24 47.30 61.0 Not Reported 5.14 SE 4.03 SE 7.38 SE No 0.000 No Precipitation 05/15/2019 12:50 AM 05/15/2019 12:55 AM 0.004 0.004 0.004 0.004 0.004 Not Reported Not Reported
05/15/2019 09:30 AM 50.54 44.42 37.94 62.24 47.30 61.0 Not Reported 4.47 SE 4.03 SE 8.05 SE No 0.000 No Precipitation 05/15/2019 12:50 AM 05/15/2019 12:55 AM 0.004 0.004 0.004 0.004 0.004 Not Reported Not Reported
05/15/2019 09:35 AM 50.36 44.96 39.20 62.24 47.30 65.0 Not Reported 3.58 SE 2.68 E 8.05 SE No 0.000 No Precipitation 05/15/2019 12:50 AM 05/15/2019 12:55 AM 0.004 0.004 0.004 0.004 0.004 Not Reported Not Reported
05/15/2019 09:40 AM 49.64 44.24 38.30 62.24 47.30 64.0 Not Reported 5.14 SE 7.16 SE 7.16 SE No 0.000 No Precipitation 05/15/2019 12:50 AM 05/15/2019 12:55 AM 0.004 0.004 0.004 0.004 0.004 Not Reported Not Reported
05/15/2019 09:45 AM 49.28 44.06 38.48 62.24 47.30 66.0 Not Reported 8.05 S 7.16 SE 7.16 SE Yes 0.043 Rain Slight 05/15/2019 01:42 AM   0.008 0.008 0.008 0.008 0.008 Not Reported Not Reported
05/15/2019 09:50 AM 48.56 43.88 38.84 62.24 47.30 69.0 Not Reported 6.49 SE 4.70 S 12.97 S Yes 0.043 Rain Slight 05/15/2019 01:50 AM   0.008 0.008 0.008 0.008 0.008 Not Reported Not Reported
05/15/2019 09:55 AM 47.84 43.52 38.84 62.24 47.30 70.0 Not Reported 6.71 SE 8.50 SE 12.97 S No 0.000 No Precipitation 05/15/2019 01:50 AM 05/15/2019 01:55 AM 0.008 0.008 0.008 0.008 0.008 Not Reported Not Reported
05/15/2019 10:00 AM 47.48 43.88 40.10 62.24 47.30 75.0 Not Reported 4.70 SE 2.68 SE 12.53 SE Yes 0.085 Rain Moderate 05/15/2019 01:55 AM   0.016 0.020 0.020 0.020 0.020 Not Reported Not Reported
05/15/2019 10:05 AM 47.12 44.06 41.00 62.24 47.12 78.0 Not Reported 4.92 SE 4.70 SE 12.53 SE Yes 0.043 Rain Slight 05/15/2019 01:55 AM   0.020 0.020 0.020 0.020 0.020 Not Reported Not Reported
05/15/2019 10:10 AM 46.94 43.88 40.64 62.24 46.94 78.0 Not Reported 6.26 SE 4.92 S 8.28 S No 0.000 No Precipitation 05/15/2019 01:55 AM 05/15/2019 02:09 AM 0.020 0.020 0.020 0.020 0.020 Not Reported Not Reported
05/15/2019 10:15 AM 47.30 44.42 41.54 62.24 46.94 80.0 Not Reported 6.49 SE 4.47 SE 8.28 S No 0.000 No Precipitation 05/15/2019 01:55 AM 05/15/2019 02:09 AM 0.020 0.020 0.020 0.020 0.020 Not Reported Not Reported
05/15/2019 10:20 AM 47.48 44.42 41.54 62.24 46.94 79.0 Not Reported 5.37 SE 4.92 SE 7.61 SE Yes 0.043 Rain Slight 05/15/2019 02:19 AM   0.020 0.028 0.028 0.028 0.028 Not Reported Not Reported
05/15/2019 10:25 AM 47.66 44.60 41.54 62.24 46.94 78.0 Not Reported 6.04 SE 6.93 S 7.61 SE No 0.000 No Precipitation 05/15/2019 02:19 AM 05/15/2019 02:24 AM 0.020 0.028 0.028 0.028 0.028 Not Reported Not Reported
05/15/2019 10:30 AM 48.02 44.96 41.90 62.24 46.94 79.0 Not Reported 6.26 S 4.70 S 8.72 SE Yes 0.043 Rain Slight 05/15/2019 02:27 AM   0.028 0.031 0.031 0.031 0.031 Not Reported Not Reported
05/15/2019 10:35 AM 47.66 44.96 42.08 62.24 46.94 80.0 Not Reported 6.04 S 5.14 SE 8.72 SE Yes 0.043 Rain Slight 05/15/2019 02:32 AM   0.031 0.035 0.035 0.035 0.035 Not Reported Not Reported
05/15/2019 10:40 AM 47.66 45.32 42.80 62.24 46.94 82.0 Not Reported 4.92 S 2.01 S 8.95 SW No 0.000 No Precipitation 05/15/2019 02:32 AM 05/15/2019 02:37 AM 0.031 0.035 0.035 0.035 0.035 Not Reported Not Reported
05/15/2019 10:45 AM 47.84 45.32 42.98 62.24 46.94 83.0 Not Reported 4.47 S 4.03 S 8.95 SW Yes 0.043 Rain Slight 05/15/2019 02:45 AM   0.031 0.039 0.039 0.039 0.039 Not Reported Not Reported
05/15/2019 10:50 AM 47.84 45.50 43.16 62.24 46.94 83.0 Not Reported 4.92 S 6.04 SE 6.71 SE No 0.000 No Precipitation 05/15/2019 02:45 AM 05/15/2019 02:50 AM 0.028 0.039 0.039 0.039 0.039 Not Reported Not Reported
05/15/2019 10:55 AM 47.84 45.14 42.44 62.24 46.94 81.0 Not Reported 6.04 S 6.26 S 6.71 SE No 0.000 No Precipitation 05/15/2019 02:45 AM 05/15/2019 02:50 AM 0.028 0.039 0.039 0.039 0.039 Not Reported Not Reported
05/15/2019 11:00 AM 47.66 45.32 43.16 62.24 46.94 83.0 Not Reported 5.59 S 5.59 S 8.95 S No 0.000 No Precipitation 05/15/2019 02:45 AM 05/15/2019 02:50 AM 0.020 0.039 0.039 0.039 0.039 Not Reported Not Reported
05/15/2019 11:05 AM 47.48 45.14 42.98 62.24 46.94 84.0 Not Reported 6.71 S 6.26 S 8.95 S Yes 0.043 Rain Slight 05/15/2019 03:04 AM   0.020 0.039 0.039 0.039 0.039 Not Reported Not Reported
05/15/2019 11:10 AM 47.66 45.68 43.52 62.24 46.94 85.0 Not Reported 2.91 S 2.91 S 10.07 S No 0.000 No Precipitation 05/15/2019 03:04 AM 05/15/2019 03:09 AM 0.020 0.039 0.039 0.039 0.039 Not Reported Not Reported
05/15/2019 11:15 AM 47.30 45.50 43.52 62.24 46.94 86.0 Not Reported 3.36 S 6.26 SE 10.07 S Yes 0.085 Rain Moderate 05/15/2019 03:11 AM   0.028 0.051 0.051 0.051 0.051 Not Reported Not Reported
05/15/2019 11:20 AM 47.48 45.86 44.24 62.24 46.94 88.0 Not Reported 3.13 S 3.58 S 6.93 S Yes 0.043 Rain Slight 05/15/2019 03:11 AM   0.028 0.055 0.055 0.055 0.055 Not Reported Not Reported
05/15/2019 11:25 AM 47.30 45.68 44.24 62.24 46.94 89.0 Not Reported 3.80 S 5.82 S 6.93 S Yes 0.043 Rain Slight 05/15/2019 03:23 AM   0.031 0.059 0.059 0.059 0.059 Not Reported Not Reported
05/15/2019 11:30 AM 47.30 45.68 44.24 62.24 46.94 89.0 Not Reported 4.03 S 2.68 S 8.05 S Yes 0.043 Rain Slight 05/15/2019 03:30 AM   0.031 0.063 0.063 0.063 0.063 Not Reported Not Reported
05/15/2019 11:36 AM 47.48 45.86 44.78 62.24 46.94 90.0 Not Reported 4.03 S 2.46 S 8.05 S No 0.000 No Precipitation 05/15/2019 03:30 AM 05/15/2019 03:35 AM 0.028 0.063 0.063 0.063 0.063 Not Reported Not Reported
05/15/2019 11:40 AM 47.30 45.86 44.60 62.24 46.94 90.0 Not Reported 4.47 S 5.37 SE 6.26 S Yes 0.043 Rain Slight 05/15/2019 03:38 AM   0.031 0.067 0.067 0.067 0.067 Not Reported Not Reported
05/15/2019 11:45 AM 47.12 45.86 44.60 62.24 46.94 90.0 Not Reported 5.82 S 2.46 S 6.26 S Yes 0.043 Rain Slight 05/15/2019 03:44 AM   0.031 0.071 0.071 0.071 0.071 Not Reported Not Reported
05/15/2019 11:50 AM 47.30 46.04 44.78 62.24 46.94 91.0 Not Reported 4.70 SE 5.37 SE 6.93 SE Yes 0.043 Rain Slight 05/15/2019 03:44 AM   0.035 0.071 0.075 0.075 0.075 Not Reported Not Reported
05/15/2019 11:55 AM 47.30 46.04 44.96 62.24 46.94 91.0 Not Reported 4.47 SE 3.13 E 6.93 SE Yes 0.085 Rain Moderate 05/15/2019 03:44 AM   0.039 0.079 0.083 0.083 0.083 Not Reported Not Reported
05/15/2019 12:00 PM 47.48 46.22 45.14 62.24 46.94 91.0 Not Reported 4.70 SE 4.92 SE 6.26 S No 0.000 No Precipitation 05/15/2019 03:44 AM 05/15/2019 03:59 AM 0.039 0.079 0.083 0.083 0.083 Not Reported Not Reported
05/15/2019 12:05 PM 47.48 46.40 45.14 62.24 46.94 91.0 Not Reported 4.47 SE 4.47 SE 6.26 S Yes 0.043 Rain Slight 05/15/2019 04:03 AM   0.039 0.083 0.083 0.083 0.083 Not Reported Not Reported
05/15/2019 12:10 PM 47.48 46.22 44.96 62.24 46.94 90.0 Not Reported 4.70 SE 6.04 SE 8.05 SE No 0.000 No Precipitation 05/15/2019 04:03 AM 05/15/2019 04:08 AM 0.039 0.083 0.083 0.083 0.083 Not Reported Not Reported
05/15/2019 12:15 PM 47.48 46.04 44.60 62.24 46.94 89.0 Not Reported 5.59 S 4.70 SE 8.05 SE Yes 0.043 Rain Slight 05/15/2019 04:10 AM   0.039 0.083 0.091 0.091 0.091 Not Reported Not Reported
05/15/2019 12:20 PM 47.66 46.22 44.78 62.24 46.94 89.0 Not Reported 5.37 SE 5.14 SE 8.05 SE No 0.000 No Precipitation 05/15/2019 04:10 AM 05/15/2019 04:15 AM 0.035 0.083 0.091 0.091 0.091 Not Reported Not Reported
05/15/2019 12:25 PM 48.02 46.58 45.32 62.24 46.94 89.0 Not Reported 3.80 SE 2.91 S 8.05 SE No 0.000 No Precipitation 05/15/2019 04:10 AM 05/15/2019 04:15 AM 0.031 0.083 0.091 0.091 0.091 Not Reported Not Reported
05/15/2019 12:30 PM 48.02 46.40 44.96 62.24 46.94 88.0 Not Reported 5.14 SE 4.70 SE 8.05 SE Yes 0.043 Rain Slight 05/15/2019 04:29 AM   0.031 0.091 0.091 0.091 0.091 Not Reported Not Reported
05/15/2019 12:35 PM 48.38 46.40 44.60 62.24 46.94 86.0 Not Reported 4.70 SE 8.95 SE 8.05 SE No 0.000 No Precipitation 05/15/2019 04:29 AM 05/15/2019 04:34 AM 0.031 0.091 0.091 0.091 0.091 Not Reported Not Reported
05/15/2019 12:40 PM 48.74 46.58 44.60 62.24 46.94 85.0 Not Reported 6.49 SE 5.82 SE 10.74 SE No 0.000 No Precipitation 05/15/2019 04:29 AM 05/15/2019 04:34 AM 0.028 0.091 0.091 0.091 0.091 Not Reported Not Reported
05/15/2019 12:45 PM 49.10 46.94 44.96 62.24 46.94 85.0 Not Reported 7.83 SE 4.47 SE 10.74 SE No 0.000 No Precipitation 05/15/2019 04:29 AM 05/15/2019 04:34 AM 0.020 0.083 0.091 0.091 0.091 Not Reported Not Reported
05/15/2019 12:50 PM 49.46 47.30 45.32 62.24 46.94 85.0 Not Reported 3.80 SE 3.36 S 10.51 SE Yes 0.043 Rain Slight 05/15/2019 04:49 AM   0.020 0.083 0.098 0.098 0.098 Not Reported Not Reported
05/15/2019 12:55 PM 49.46 47.12 44.96 62.24 46.94 84.0 Not Reported 4.47 SE 7.38 S 10.51 SE No 0.000 No Precipitation 05/15/2019 04:49 AM 05/15/2019 04:54 AM 0.016 0.083 0.098 0.098 0.098 Not Reported Not Reported
05/15/2019 01:00 PM 50.54 48.20 46.04 62.24 46.94 84.0 Not Reported 4.70 S 3.13 S 7.83 SE No 0.000 No Precipitation 05/15/2019 04:49 AM 05/15/2019 04:54 AM 0.016 0.079 0.098 0.098 0.098 Not Reported Not Reported
05/15/2019 01:05 PM 50.54 47.84 45.68 62.24 46.94 83.0 Not Reported 6.04 S 6.04 S 7.83 SE No 0.000 No Precipitation 05/15/2019 04:49 AM 05/15/2019 04:54 AM 0.008 0.075 0.098 0.098 0.098 Not Reported Not Reported
05/15/2019 01:10 PM 50.36 47.84 45.32 62.24 46.94 82.0 Not Reported 6.26 SE 5.37 SE 7.61 S No 0.000 No Precipitation 05/15/2019 04:49 AM 05/15/2019 04:54 AM 0.008 0.075 0.098 0.098 0.098 Not Reported Not Reported
05/15/2019 01:15 PM 50.00 47.30 44.78 62.24 46.94 82.0 Not Reported 6.26 S 8.50 SE 7.61 S No 0.000 No Precipitation 05/15/2019 04:49 AM 05/15/2019 04:54 AM 0.008 0.075 0.098 0.098 0.098 Not Reported Not Reported
05/15/2019 01:20 PM 49.64 46.94 44.42 62.24 46.94 82.0 Not Reported 7.38 SE 4.92 SE 9.40 S No 0.000 No Precipitation 05/15/2019 04:49 AM 05/15/2019 04:54 AM 0.008 0.071 0.098 0.098 0.098 Not Reported Not Reported
05/15/2019 01:25 PM 49.64 47.30 45.14 62.24 46.94 84.0 Not Reported 4.03 SE 3.80 S 9.40 S Yes 0.043 Rain Slight 05/15/2019 05:24 AM   0.008 0.075 0.102 0.102 0.102 Not Reported Not Reported
05/15/2019 01:30 PM 48.92 47.12 45.32 62.24 46.94 87.0 Not Reported 4.25 S 5.59 S 6.93 S Yes 0.085 Rain Moderate 05/15/2019 05:24 AM   0.016 0.079 0.110 0.110 0.110 Not Reported Not Reported
05/15/2019 01:35 PM 46.40 45.14 43.88 62.24 46.40 90.0 Not Reported 11.63 SW 10.96 SW 6.93 S Yes 0.411 Rain Heavy 05/15/2019 05:24 AM   0.051 0.110 0.146 0.146 0.146 Not Reported Not Reported
05/15/2019 01:40 PM 46.22 45.32 44.42 62.24 46.04 93.0 Not Reported 7.16 SW 8.95 SW 14.09 W Yes 0.326 Rain Heavy 05/15/2019 05:24 AM   0.079 0.138 0.169 0.169 0.169 Not Reported Not Reported
05/15/2019 01:45 PM 46.58 45.86 44.96 62.24 46.04 94.0 Not Reported 6.93 S 8.05 SW 14.09 W Yes 0.043 Rain Slight 05/15/2019 05:24 AM   0.083 0.138 0.177 0.177 0.177 Not Reported Not Reported
05/15/2019 01:50 PM 46.40 45.68 44.78 62.24 46.04 93.0 Not Reported 9.40 SW 7.83 S 12.97 SW Yes 0.043 Rain Slight 05/15/2019 05:24 AM   0.083 0.142 0.181 0.181 0.181 Not Reported Not Reported
05/15/2019 01:55 PM 46.76 45.86 45.14 62.24 46.04 93.0 Not Reported 8.95 SW 8.72 SW 12.97 SW Yes 0.043 Rain Slight 05/15/2019 05:24 AM   0.083 0.146 0.185 0.185 0.185 Not Reported Not Reported
05/15/2019 02:00 PM 47.48 46.58 45.68 62.24 46.04 93.0 Not Reported 7.83 SW 9.40 S 10.74 SW Yes 0.043 Rain Slight 05/15/2019 05:56 AM   0.091 0.150 0.185 0.185 0.185 Not Reported Not Reported
05/15/2019 02:05 PM 47.12 46.04 45.14 62.24 46.04 92.0 Not Reported 9.84 SW 13.65 SW 10.74 SW No 0.000 No Precipitation 05/15/2019 05:56 AM 05/15/2019 06:01 AM 0.091 0.146 0.185 0.185 0.185 Not Reported Not Reported
05/15/2019 02:10 PM 47.12 46.04 44.96 62.24 46.04 91.0 Not Reported 9.17 SW 10.96 SW 13.65 SW No 0.000 No Precipitation 05/15/2019 05:56 AM 05/15/2019 06:01 AM 0.091 0.146 0.185 0.185 0.185 Not Reported Not Reported
05/15/2019 02:15 PM 47.30 46.22 45.14 62.24 46.04 92.0 Not Reported 6.49 SW 7.16 SW 13.65 SW Yes 0.043 Rain Slight 05/15/2019 06:10 AM   0.091 0.142 0.189 0.189 0.189 Not Reported Not Reported
05/15/2019 02:20 PM 46.94 45.50 44.24 62.24 46.04 90.0 Not Reported 7.83 SW 8.72 SW 13.65 SW No 0.000 No Precipitation 05/15/2019 06:10 AM 05/15/2019 06:15 AM 0.091 0.138 0.189 0.189 0.189 Not Reported Not Reported
05/15/2019 02:25 PM 46.76 45.32 44.06 62.24 46.04 90.0 Not Reported 12.08 SW 6.71 S 13.65 SW No 0.000 No Precipitation 05/15/2019 06:10 AM 05/15/2019 06:15 AM 0.091 0.134 0.189 0.189 0.189 Not Reported Not Reported
05/15/2019 02:30 PM 48.02 46.76 45.68 62.24 46.04 91.0 Not Reported 4.92 S 6.49 SW 13.20 SW No 0.000 No Precipitation 05/15/2019 06:10 AM 05/15/2019 06:15 AM 0.083 0.130 0.189 0.189 0.189 Not Reported Not Reported
05/15/2019 02:35 PM 47.66 46.22 44.78 62.24 46.04 90.0 Not Reported 9.17 S 10.29 S 13.20 SW No 0.000 No Precipitation 05/15/2019 06:10 AM 05/15/2019 06:15 AM 0.043 0.130 0.189 0.189 0.189 Not Reported Not Reported
05/15/2019 02:40 PM 49.10 47.84 46.76 62.24 46.04 91.0 Not Reported 5.59 SW 7.83 S 10.74 SW Yes 0.043 Rain Slight 05/15/2019 06:39 AM   0.020 0.130 0.197 0.197 0.197 Not Reported Not Reported
05/15/2019 02:45 PM 49.10 47.48 46.22 62.24 46.04 89.0 Not Reported 6.71 S 8.72 SW 10.74 SW No 0.000 No Precipitation 05/15/2019 06:39 AM 05/15/2019 06:44 AM 0.020 0.126 0.197 0.197 0.197 Not Reported Not Reported
05/15/2019 02:50 PM 50.54 48.92 47.66 62.24 46.04 89.0 Not Reported 4.92 SE 5.37 SE 10.96 S No 0.000 No Precipitation 05/15/2019 06:39 AM 05/15/2019 06:44 AM 0.016 0.122 0.189 0.197 0.197 Not Reported Not Reported
05/15/2019 02:55 PM 49.64 47.48 45.50 61.88 46.04 85.0 Not Reported 6.71 S 5.82 SE 10.96 S No 0.000 No Precipitation 05/15/2019 06:39 AM 05/15/2019 06:44 AM 0.008 0.110 0.189 0.197 0.197 Not Reported Not Reported
05/15/2019 03:00 PM 50.90 48.92 47.30 61.88 46.04 87.0 Not Reported 6.04 S 6.93 S 8.28 S No 0.000 No Precipitation 05/15/2019 06:39 AM 05/15/2019 06:44 AM 0.008 0.110 0.189 0.197 0.197 Not Reported Not Reported
05/15/2019 03:05 PM 51.44 49.46 47.66 61.88 46.04 86.0 Not Reported 4.25 SW 6.49 SW 8.28 S No 0.000 No Precipitation 05/15/2019 06:39 AM 05/15/2019 06:44 AM 0.008 0.110 0.189 0.197 0.197 Not Reported Not Reported
05/15/2019 03:10 PM 49.64 47.30 45.14 61.88 46.04 84.0 Not Reported 8.05 SW 8.05 S 9.17 SW No 0.000 No Precipitation 05/15/2019 06:39 AM 05/15/2019 06:44 AM 0.008 0.110 0.189 0.197 0.197 Not Reported Not Reported
05/15/2019 03:15 PM 50.36 48.20 46.40 61.88 46.04 86.0 Not Reported 7.83 S 10.29 SW 9.17 SW No 0.000 No Precipitation 05/15/2019 06:39 AM 05/15/2019 06:44 AM 0.004 0.102 0.189 0.197 0.197 Not Reported Not Reported
05/15/2019 03:20 PM 50.90 48.38 46.04 61.88 46.04 83.0 Not Reported 8.05 SW 10.07 S 10.96 SW No 0.000 No Precipitation 05/15/2019 06:39 AM 05/15/2019 06:44 AM 0.004 0.102 0.189 0.197 0.197 Not Reported Not Reported
05/15/2019 03:25 PM 50.90 48.20 45.68 61.88 46.04 82.0 Not Reported 7.38 S 10.29 S 10.96 SW No 0.000 No Precipitation 05/15/2019 06:39 AM 05/15/2019 06:44 AM 0.004 0.102 0.189 0.197 0.197 Not Reported Not Reported
05/15/2019 03:30 PM 51.26 48.92 46.76 61.88 46.04 84.0 Not Reported 4.03 S 2.68 S 10.29 S No 0.000 No Precipitation 05/15/2019 06:39 AM 05/15/2019 06:44 AM 0.004 0.102 0.189 0.197 0.197 Not Reported Not Reported
05/15/2019 03:35 PM 50.18 47.30 44.60 61.88 46.04 81.0 Not Reported 6.93 SW 9.84 S 10.29 S No 0.000 No Precipitation 05/15/2019 06:39 AM 05/15/2019 06:44 AM 0.004 0.102 0.189 0.197 0.197 Not Reported Not Reported
05/15/2019 03:40 PM 50.54 48.02 45.68 61.88 46.04 83.0 Not Reported 6.71 S 7.83 SW 11.18 S No 0.000 No Precipitation 05/15/2019 06:39 AM 05/15/2019 06:44 AM 0.000 0.102 0.189 0.197 0.197 Not Reported Not Reported
05/15/2019 03:45 PM 50.54 47.84 45.68 61.88 46.04 83.0 Not Reported 6.04 S 2.46 E 11.18 S No 0.000 No Precipitation 05/15/2019 06:39 AM 05/15/2019 06:44 AM 0.000 0.102 0.185 0.197 0.197 Not Reported Not Reported
05/15/2019 03:50 PM 50.72 48.20 45.86 61.88 46.04 83.0 Not Reported 6.93 S 6.04 S 10.29 S No 0.000 No Precipitation 05/15/2019 06:39 AM 05/15/2019 06:44 AM 0.000 0.098 0.185 0.197 0.197 Not Reported Not Reported
05/15/2019 03:55 PM 52.16 49.28 46.94 61.88 46.04 82.0 Not Reported 6.93 S 5.14 S 10.29 S No 0.000 No Precipitation 05/15/2019 06:39 AM 05/15/2019 06:44 AM 0.000 0.098 0.185 0.197 0.197 Not Reported Not Reported
05/15/2019 04:00 PM 51.62 48.20 44.96 61.88 46.04 77.0 Not Reported 7.38 S 4.47 S 8.95 S No 0.000 No Precipitation 05/15/2019 06:39 AM 05/15/2019 06:44 AM 0.000 0.098 0.177 0.197 0.197 Not Reported Not Reported
05/15/2019 04:05 PM 51.98 48.38 45.14 61.88 46.04 77.0 Not Reported 8.50 SW 9.17 SW 8.95 S No 0.000 No Precipitation 05/15/2019 06:39 AM 05/15/2019 06:44 AM 0.000 0.098 0.169 0.197 0.197 Not Reported Not Reported
05/15/2019 04:10 PM 52.34 48.74 45.50 61.88 46.04 77.0 Not Reported 9.17 SW 8.50 S 12.08 SW No 0.000 No Precipitation 05/15/2019 06:39 AM 05/15/2019 06:44 AM 0.000 0.098 0.169 0.197 0.197 Not Reported Not Reported
05/15/2019 04:15 PM 52.70 48.38 44.42 61.88 46.04 73.0 Not Reported 9.62 SW 11.86 SW 12.08 SW No 0.000 No Precipitation 05/15/2019 06:39 AM 05/15/2019 06:44 AM 0.000 0.098 0.169 0.197 0.197 Not Reported Not Reported
05/15/2019 04:20 PM 54.50 49.82 45.86 61.88 46.04 72.0 Not Reported 10.74 S 11.18 S 15.21 S No 0.000 No Precipitation 05/15/2019 06:39 AM 05/15/2019 06:44 AM 0.000 0.098 0.165 0.197 0.197 Not Reported Not Reported
05/15/2019 04:25 PM 54.50 49.82 45.68 61.88 46.04 71.0 Not Reported 9.40 SW 9.17 SW 15.21 S No 0.000 No Precipitation 05/15/2019 06:39 AM 05/15/2019 06:44 AM 0.000 0.091 0.165 0.197 0.197 Not Reported Not Reported
05/15/2019 04:30 PM 53.60 48.74 44.06 61.88 46.04 69.0 Not Reported 12.08 S 8.95 S 15.43 SW No 0.000 No Precipitation 05/15/2019 06:39 AM 05/15/2019 06:44 AM 0.000 0.083 0.165 0.197 0.197 Not Reported Not Reported
05/15/2019 04:35 PM 53.78 48.56 43.70 61.88 46.04 68.0 Not Reported 10.51 SW 9.17 SW 15.43 SW No 0.000 No Precipitation 05/15/2019 06:39 AM 05/15/2019 06:44 AM 0.000 0.051 0.161 0.197 0.197 Not Reported Not Reported
05/15/2019 04:40 PM 53.24 48.38 43.88 61.88 46.04 70.0 Not Reported 8.95 SW 8.05 S 13.42 SW No 0.000 No Precipitation 05/15/2019 06:39 AM 05/15/2019 06:44 AM 0.000 0.020 0.161 0.197 0.197 Not Reported Not Reported
05/15/2019 04:45 PM 53.42 48.20 43.16 61.88 46.04 68.0 Not Reported 11.63 SW 10.96 SW 13.42 SW No 0.000 No Precipitation 05/15/2019 06:39 AM 05/15/2019 06:44 AM 0.000 0.020 0.157 0.197 0.197 Not Reported Not Reported
05/15/2019 04:50 PM 51.98 47.12 42.44 61.88 46.04 69.0 Not Reported 11.86 SW 11.41 S 13.87 SW No 0.000 No Precipitation 05/15/2019 06:39 AM 05/15/2019 06:44 AM 0.000 0.016 0.157 0.197 0.197 Not Reported Not Reported
05/15/2019 04:55 PM 52.34 47.66 42.80 61.88 46.04 69.0 Not Reported 11.63 S 13.65 S 13.87 SW No 0.000 No Precipitation 05/15/2019 06:39 AM 05/15/2019 06:44 AM 0.000 0.008 0.157 0.197 0.197 Not Reported Not Reported
05/15/2019 05:00 PM 52.52 47.84 43.34 61.88 46.04 70.0 Not Reported 8.95 SW 10.07 SW 14.76 SW No 0.000 No Precipitation 05/15/2019 06:39 AM 05/15/2019 06:44 AM 0.000 0.008 0.157 0.197 0.197 Not Reported Not Reported
05/15/2019 05:05 PM 52.88 48.38 44.06 61.88 46.04 71.0 Not Reported 7.38 S 5.14 SW 14.76 SW No 0.000 No Precipitation 05/15/2019 06:39 AM 05/15/2019 06:44 AM 0.000 0.008 0.154 0.197 0.197 Not Reported Not Reported
05/15/2019 05:10 PM 51.08 46.58 42.26 61.88 46.04 71.0 Not Reported 12.75 S 10.51 SW 14.32 S No 0.000 No Precipitation 05/15/2019 06:39 AM 05/15/2019 06:44 AM 0.000 0.008 0.154 0.197 0.197 Not Reported Not Reported
05/15/2019 05:15 PM 52.16 47.48 43.16 61.88 46.04 71.0 Not Reported 10.74 S 10.07 S 14.32 S No 0.000 No Precipitation 05/15/2019 06:39 AM 05/15/2019 06:44 AM 0.000 0.004 0.146 0.197 0.197 Not Reported Not Reported
05/15/2019 05:20 PM 51.26 46.58 42.08 61.88 46.04 71.0 Not Reported 13.20 S 12.08 S 16.11 S No 0.000 No Precipitation 05/15/2019 06:39 AM 05/15/2019 06:44 AM 0.000 0.004 0.142 0.197 0.197 Not Reported Not Reported
05/15/2019 05:25 PM 51.62 47.30 43.16 61.88 46.04 72.0 Not Reported 8.72 S 10.74 S 16.11 S No 0.000 No Precipitation 05/15/2019 06:39 AM 05/15/2019 06:44 AM 0.000 0.004 0.138 0.197 0.197 Not Reported Not Reported
05/15/2019 05:30 PM 52.16 47.84 43.88 60.80 46.04 73.0 Not Reported 8.72 SW 7.38 SW 12.97 SW No 0.000 No Precipitation 05/15/2019 06:39 AM 05/15/2019 06:44 AM 0.000 0.004 0.134 0.197 0.197 Not Reported Not Reported
05/15/2019 05:35 PM 52.88 48.38 44.24 60.62 46.04 72.0 Not Reported 7.61 SW 6.93 SW 12.97 SW No 0.000 No Precipitation 05/15/2019 06:39 AM 05/15/2019 06:44 AM 0.000 0.004 0.134 0.197 0.197 Not Reported Not Reported
05/15/2019 05:40 PM 52.88 48.20 43.52 60.62 46.04 70.0 Not Reported 9.40 S 9.62 S 10.29 S No 0.000 No Precipitation 05/15/2019 06:39 AM 05/15/2019 06:44 AM 0.000 0.000 0.130 0.197 0.197 Not Reported Not Reported
05/15/2019 05:45 PM 52.52 47.84 43.34 60.62 46.04 70.0 Not Reported 9.40 SW 9.62 SW 10.29 S No 0.000 No Precipitation 05/15/2019 06:39 AM 05/15/2019 06:44 AM 0.000 0.000 0.126 0.197 0.197 Not Reported Not Reported
05/15/2019 05:50 PM 51.98 47.48 43.34 60.62 46.04 72.0 Not Reported 8.28 SW 8.95 W 11.63 S No 0.000 No Precipitation 05/15/2019 06:39 AM 05/15/2019 06:44 AM 0.000 0.000 0.122 0.197 0.197 Not Reported Not Reported
05/15/2019 05:55 PM 51.62 47.48 43.52 60.62 46.04 73.0 Not Reported 9.40 S 6.93 S 11.63 S No 0.000 No Precipitation 05/15/2019 06:39 AM 05/15/2019 06:44 AM 0.000 0.000 0.110 0.197 0.197 Not Reported Not Reported
05/15/2019 06:00 PM 51.62 47.66 43.70 60.44 46.04 74.0 Not Reported 7.38 S 5.14 S 10.29 S No 0.000 No Precipitation 05/15/2019 06:39 AM 05/15/2019 06:44 AM 0.000 0.000 0.110 0.197 0.197 Not Reported Not Reported
05/15/2019 06:05 PM 52.34 48.02 44.06 60.44 46.04 73.0 Not Reported 6.26 SW 7.38 SW 10.29 S No 0.000 No Precipitation 05/15/2019 06:39 AM 05/15/2019 06:44 AM 0.000 0.000 0.110 0.197 0.197 Not Reported Not Reported
05/15/2019 06:10 PM 52.34 48.20 44.42 59.90 46.04 74.0 Not Reported 4.47 S 4.03 SW 8.72 S No 0.000 No Precipitation 05/15/2019 06:39 AM 05/15/2019 06:44 AM 0.000 0.000 0.110 0.197 0.197 Not Reported Not Reported
05/15/2019 06:15 PM 51.62 47.30 43.34 59.90 46.04 73.0 Not Reported 6.04 SW 6.71 SW 8.72 S No 0.000 No Precipitation 05/15/2019 06:39 AM 05/15/2019 06:44 AM 0.000 0.000 0.102 0.197 0.197 Not Reported Not Reported
05/15/2019 06:20 PM 51.62 47.66 43.88 59.90 46.04 74.0 Not Reported 4.03 S 5.59 SW 8.05 SW No 0.000 No Precipitation 05/15/2019 06:39 AM 05/15/2019 06:44 AM 0.000 0.000 0.102 0.197 0.197 Not Reported Not Reported
05/15/2019 06:25 PM 51.98 48.02 44.24 59.90 46.04 74.0 Not Reported 6.04 SW 4.03 S 8.05 SW No 0.000 No Precipitation 05/15/2019 06:39 AM 05/15/2019 06:44 AM 0.000 0.000 0.102 0.197 0.197 Not Reported Not Reported
05/15/2019 06:30 PM 51.44 47.30 43.16 59.54 46.04 72.0 Not Reported 6.49 SW 6.26 SW 8.05 SW No 0.000 No Precipitation 05/15/2019 06:39 AM 05/15/2019 06:44 AM 0.000 0.000 0.102 0.197 0.197 Not Reported Not Reported
05/15/2019 06:35 PM 51.80 47.12 42.62 59.18 46.04 70.0 Not Reported 6.49 SW 7.16 S 8.05 SW No 0.000 No Precipitation 05/15/2019 06:39 AM 05/15/2019 06:44 AM 0.000 0.000 0.102 0.197 0.197 Not Reported Not Reported
05/15/2019 06:40 PM 51.80 47.48 43.34 59.00 46.04 72.0 Not Reported 6.26 SW 4.47 SW 9.17 SW No 0.000 No Precipitation 05/15/2019 06:39 AM 05/15/2019 06:44 AM 0.000 0.000 0.102 0.197 0.197 Not Reported Not Reported
05/15/2019 06:45 PM 51.62 47.12 42.80 59.00 46.04 71.0 Not Reported 6.04 SW 7.16 SW 9.17 SW No 0.000 No Precipitation 05/15/2019 06:39 AM 05/15/2019 06:44 AM 0.000 0.000 0.102 0.197 0.197 Not Reported Not Reported
05/15/2019 06:50 PM 51.26 46.76 42.26 59.00 46.04 70.0 Not Reported 6.49 S 7.61 SW 8.50 S No 0.000 No Precipitation 05/15/2019 06:39 AM 05/15/2019 06:44 AM 0.000 0.000 0.098 0.197 0.197 Not Reported Not Reported
05/15/2019 06:55 PM 50.90 46.76 42.62 58.82 46.04 73.0 Not Reported 8.28 SW 6.49 SW 8.50 S No 0.000 No Precipitation 05/15/2019 06:39 AM 05/15/2019 06:44 AM 0.000 0.000 0.098 0.197 0.197 Not Reported Not Reported
05/15/2019 07:00 PM 50.90 46.94 42.98 58.46 46.04 74.0 Not Reported 6.49 SW 7.38 SW 10.51 S No 0.000 No Precipitation 05/15/2019 06:39 AM 05/15/2019 06:44 AM 0.000 0.000 0.098 0.197 0.197 Not Reported Not Reported
05/15/2019 07:05 PM 50.54 46.58 42.62 58.28 46.04 73.0 Not Reported 7.61 SW 7.38 SW 10.51 S No 0.000 No Precipitation 05/15/2019 06:39 AM 05/15/2019 06:44 AM 0.000 0.000 0.098 0.197 0.197 Not Reported Not Reported
05/15/2019 07:10 PM 50.36 46.40 42.62 58.28 46.04 74.0 Not Reported 6.04 SW 4.92 SW 9.40 SW No 0.000 No Precipitation 05/15/2019 06:39 AM 05/15/2019 06:44 AM 0.000 0.000 0.098 0.197 0.197 Not Reported Not Reported
05/15/2019 07:15 PM 50.54 46.58 42.98 58.28 46.04 75.0 Not Reported 5.59 SW 5.14 SW 9.40 SW No 0.000 No Precipitation 05/15/2019 06:39 AM 05/15/2019 06:44 AM 0.000 0.000 0.098 0.197 0.197 Not Reported Not Reported
05/15/2019 07:20 PM 50.18 46.22 42.44 57.92 46.04 74.0 Not Reported 6.49 SW 5.59 S 8.05 S No 0.000 No Precipitation 05/15/2019 06:39 AM 05/15/2019 06:44 AM 0.000 0.000 0.098 0.197 0.197 Not Reported Not Reported
05/15/2019 07:25 PM 50.36 46.58 42.98 57.74 46.04 75.0 Not Reported 6.93 SW 5.59 SW 8.05 S No 0.000 No Precipitation 05/15/2019 06:39 AM 05/15/2019 06:44 AM 0.000 0.000 0.091 0.197 0.197 Not Reported Not Reported
05/15/2019 07:30 PM 50.54 46.76 42.98 57.56 46.04 75.0 Not Reported 5.14 SW 5.59 SW 8.72 SW No 0.000 No Precipitation 05/15/2019 06:39 AM 05/15/2019 06:44 AM 0.000 0.000 0.083 0.197 0.197 Not Reported Not Reported
05/15/2019 07:35 PM 50.18 46.40 42.80 57.38 46.04 75.0 Not Reported 6.93 SW 6.49 SW 8.72 SW No 0.000 No Precipitation 05/15/2019 06:39 AM 05/15/2019 06:44 AM 0.000 0.000 0.051 0.197 0.197 Not Reported Not Reported
05/15/2019 07:40 PM 50.00 46.22 42.62 57.38 46.04 75.0 Not Reported 7.16 SW 7.83 S 8.72 S No 0.000 No Precipitation 05/15/2019 06:39 AM 05/15/2019 06:44 AM 0.000 0.000 0.020 0.197 0.197 Not Reported Not Reported
05/15/2019 07:45 PM 49.64 46.40 43.16 57.20 46.04 78.0 Not Reported 6.04 S 6.04 SW 8.72 S No 0.000 No Precipitation 05/15/2019 06:39 AM 05/15/2019 06:44 AM 0.000 0.000 0.020 0.197 0.197 Not Reported Not Reported
05/15/2019 07:50 PM 49.46 46.40 43.34 57.02 46.04 79.0 Not Reported 5.59 S 3.80 S 8.72 S No 0.000 No Precipitation 05/15/2019 06:39 AM 05/15/2019 06:44 AM 0.000 0.000 0.016 0.197 0.197 Not Reported Not Reported
05/15/2019 07:55 PM 49.46 46.40 43.70 56.66 46.04 80.0 Not Reported 5.14 S 4.92 S 8.72 S No 0.000 No Precipitation 05/15/2019 06:39 AM 05/15/2019 06:44 AM 0.000 0.000 0.008 0.197 0.197 Not Reported Not Reported
05/15/2019 08:00 PM 49.10 46.04 43.16 56.48 46.04 79.0 Not Reported 6.26 SW 7.16 SW 7.16 SW No 0.000 No Precipitation 05/15/2019 06:39 AM 05/15/2019 06:44 AM 0.000 0.000 0.008 0.197 0.197 Not Reported Not Reported
05/15/2019 08:05 PM 48.92 46.22 43.52 56.48 46.04 81.0 Not Reported 4.25 S 2.91 SE 7.16 SW No 0.000 No Precipitation 05/15/2019 06:39 AM 05/15/2019 06:44 AM 0.000 0.000 0.008 0.197 0.197 Not Reported Not Reported
05/15/2019 08:10 PM 49.10 46.22 43.52 56.30 46.04 80.0 Not Reported 5.14 S 3.58 S 8.95 S No 0.000 No Precipitation 05/15/2019 06:39 AM 05/15/2019 06:44 AM 0.000 0.000 0.008 0.197 0.197 Not Reported Not Reported
05/15/2019 08:15 PM 49.28 46.22 43.34 56.30 46.04 79.0 Not Reported 5.37 S 2.24 SW 8.95 S No 0.000 No Precipitation 05/15/2019 06:39 AM 05/15/2019 06:44 AM 0.000 0.000 0.004 0.197 0.197 Not Reported Not Reported
05/15/2019 08:20 PM 49.10 46.40 43.70 56.12 46.04 81.0 Not Reported 3.58 S 4.25 S 7.38 SW No 0.000 No Precipitation 05/15/2019 06:39 AM 05/15/2019 06:44 AM 0.000 0.000 0.004 0.197 0.197 Not Reported Not Reported
05/15/2019 08:25 PM 48.92 46.22 43.70 55.94 46.04 82.0 Not Reported 2.46 S 4.92 S 7.38 SW No 0.000 No Precipitation 05/15/2019 06:39 AM 05/15/2019 06:44 AM 0.000 0.000 0.004 0.197 0.197 Not Reported Not Reported
05/15/2019 08:30 PM 49.10 46.58 43.88 55.76 46.04 82.0 Not Reported 2.01 S 2.46 S 4.92 S No 0.000 No Precipitation 05/15/2019 06:39 AM 05/15/2019 06:44 AM 0.000 0.000 0.004 0.197 0.197 Not Reported Not Reported
05/15/2019 08:35 PM 48.74 46.22 43.70 55.58 46.04 82.0 Not Reported 2.46 S 2.01 S 4.92 S No 0.000 No Precipitation 05/15/2019 06:39 AM 05/15/2019 06:44 AM 0.000 0.000 0.004 0.197 0.197 Not Reported Not Reported
05/15/2019 08:40 PM 48.56 46.22 44.06 55.58 46.04 84.0 Not Reported 2.01 SE 3.80 SE 4.70 S No 0.000 No Precipitation 05/15/2019 06:39 AM 05/15/2019 06:44 AM 0.000 0.000 0.000 0.197 0.197 Not Reported Not Reported
05/15/2019 08:45 PM 48.38 46.40 44.60 55.40 46.04 86.0 Not Reported 2.24 S 2.01 S 4.70 S No 0.000 No Precipitation 05/15/2019 06:39 AM 05/15/2019 06:44 AM 0.000 0.000 0.000 0.197 0.197 Not Reported Not Reported
05/15/2019 08:50 PM 48.56 46.22 43.88 55.40 46.04 83.0 Not Reported 4.70 S 4.25 S 8.95 SE No 0.000 No Precipitation 05/15/2019 06:39 AM 05/15/2019 06:44 AM 0.000 0.000 0.000 0.189 0.197 Not Reported Not Reported
05/15/2019 08:55 PM 48.20 46.04 44.06 55.40 46.04 85.0 Not Reported 5.37 S 5.37 SE 8.95 SE No 0.000 No Precipitation 05/15/2019 06:39 AM 05/15/2019 06:44 AM 0.000 0.000 0.000 0.189 0.197 Not Reported Not Reported
05/15/2019 09:00 PM 48.02 45.86 43.52 55.40 46.04 84.0 Not Reported 4.70 SE 4.92 E 8.72 S No 0.000 No Precipitation 05/15/2019 06:39 AM 05/15/2019 06:44 AM 0.000 0.000 0.000 0.189 0.197 Not Reported Not Reported
05/15/2019 09:05 PM 47.66 45.50 43.16 55.04 46.04 84.0 Not Reported 5.37 S 7.38 S 8.72 S No 0.000 No Precipitation 05/15/2019 06:39 AM 05/15/2019 06:44 AM 0.000 0.000 0.000 0.189 0.197 Not Reported Not Reported
05/15/2019 09:10 PM 47.66 45.32 43.16 55.04 46.04 84.0 Not Reported 4.92 S 5.37 S 8.05 S Yes 0.043 Rain Slight 05/15/2019 01:10 PM   0.004 0.004 0.004 0.197 0.201 Not Reported Not Reported
05/15/2019 09:15 PM 47.12 44.96 42.80 55.04 46.04 84.0 Not Reported 4.25 S 4.47 SE 8.05 S No 0.000 No Precipitation 05/15/2019 01:10 PM 05/15/2019 01:15 PM 0.004 0.004 0.004 0.197 0.201 Not Reported Not Reported
05/15/2019 09:20 PM 47.12 44.96 42.80 55.04 46.04 85.0 Not Reported 6.49 SE 5.37 S 9.84 E No 0.000 No Precipitation 05/15/2019 01:10 PM 05/15/2019 01:15 PM 0.004 0.004 0.004 0.197 0.201 Not Reported Not Reported
05/15/2019 09:25 PM 46.94 44.96 42.80 55.04 46.04 85.0 Not Reported 5.59 S 5.14 S 9.84 E No 0.000 No Precipitation 05/15/2019 01:10 PM 05/15/2019 01:15 PM 0.004 0.004 0.004 0.197 0.201 Not Reported Not Reported
05/15/2019 09:30 PM 46.94 44.78 42.80 55.04 46.04 85.0 Not Reported 5.82 SE 6.04 E 7.61 S Yes 0.043 Rain Slight 05/15/2019 01:30 PM   0.008 0.008 0.008 0.201 0.205 Not Reported Not Reported
05/15/2019 09:35 PM 46.76 44.42 42.26 55.04 46.04 84.0 Not Reported 6.71 S 10.07 S 7.61 S No 0.000 No Precipitation 05/15/2019 01:30 PM 05/15/2019 01:35 PM 0.008 0.008 0.008 0.201 0.205 Not Reported Not Reported
05/15/2019 09:40 PM 46.94 44.60 42.08 55.04 46.04 83.0 Not Reported 5.37 S 3.13 S 10.29 S No 0.000 No Precipitation 05/15/2019 01:30 PM 05/15/2019 01:35 PM 0.008 0.008 0.008 0.201 0.205 Not Reported Not Reported
05/15/2019 09:45 PM 46.58 44.42 42.08 55.04 46.04 84.0 Not Reported 5.14 S 6.04 SW 10.29 S No 0.000 No Precipitation 05/15/2019 01:30 PM 05/15/2019 01:35 PM 0.008 0.008 0.008 0.197 0.205 Not Reported Not Reported
05/15/2019 09:50 PM 46.58 44.42 42.44 55.04 46.04 85.0 Not Reported 5.14 S 4.92 S 6.93 SW No 0.000 No Precipitation 05/15/2019 01:30 PM 05/15/2019 01:35 PM 0.008 0.008 0.008 0.189 0.205 Not Reported Not Reported
05/15/2019 09:55 PM 46.58 44.42 42.44 55.04 46.04 85.0 Not Reported 4.25 S 2.46 SE 6.93 SW No 0.000 No Precipitation 05/15/2019 01:30 PM 05/15/2019 01:35 PM 0.008 0.008 0.008 0.189 0.205 Not Reported Not Reported
05/15/2019 10:00 PM 46.40 44.42 42.26 55.04 46.04 85.0 Not Reported 3.80 S 6.04 SE 6.93 S No 0.000 No Precipitation 05/15/2019 01:30 PM 05/15/2019 01:35 PM 0.008 0.008 0.008 0.185 0.205 Not Reported Not Reported
05/15/2019 10:05 PM 46.58 44.24 41.90 55.04 46.04 83.0 Not Reported 6.04 S 5.37 S 6.93 S No 0.000 No Precipitation 05/15/2019 01:30 PM 05/15/2019 01:35 PM 0.008 0.008 0.008 0.181 0.205 Not Reported Not Reported
05/15/2019 10:10 PM 46.58 44.06 41.72 55.04 46.04 82.0 Not Reported 6.04 S 6.71 S 8.50 S No 0.000 No Precipitation 05/15/2019 01:30 PM 05/15/2019 01:35 PM 0.004 0.008 0.008 0.181 0.205 Not Reported Not Reported
05/15/2019 10:15 PM 46.58 43.88 41.18 55.04 46.04 80.0 Not Reported 4.03 S 4.92 S 8.50 S No 0.000 No Precipitation 05/15/2019 01:30 PM 05/15/2019 01:35 PM 0.004 0.008 0.008 0.181 0.205 Not Reported Not Reported
05/15/2019 10:20 PM 46.76 43.70 40.46 55.04 46.04 78.0 Not Reported 6.26 S 5.82 SE 7.83 S No 0.000 No Precipitation 05/15/2019 01:30 PM 05/15/2019 01:35 PM 0.004 0.008 0.008 0.177 0.205 Not Reported Not Reported
05/15/2019 10:25 PM 46.94 43.70 40.10 55.04 46.04 76.0 Not Reported 6.04 S 5.37 SE 7.83 S No 0.000 No Precipitation 05/15/2019 01:30 PM 05/15/2019 01:35 PM 0.004 0.008 0.008 0.177 0.205 Not Reported Not Reported
05/15/2019 10:30 PM 46.76 43.34 39.92 55.04 46.04 77.0 Not Reported 6.04 S 5.37 SE 9.17 S No 0.000 No Precipitation 05/15/2019 01:30 PM 05/15/2019 01:35 PM 0.000 0.008 0.008 0.169 0.205 Not Reported Not Reported
05/15/2019 10:35 PM 46.58 43.16 39.38 55.04 46.04 75.0 Not Reported 6.26 S 5.37 S 9.17 S No 0.000 No Precipitation 05/15/2019 01:30 PM 05/15/2019 01:35 PM 0.000 0.008 0.008 0.165 0.205 Not Reported Not Reported
05/15/2019 10:40 PM 46.76 43.16 39.20 55.04 46.04 74.0 Not Reported 5.14 S 3.36 SE 7.83 S No 0.000 No Precipitation 05/15/2019 01:30 PM 05/15/2019 01:35 PM 0.000 0.008 0.008 0.165 0.205 Not Reported Not Reported
05/15/2019 10:45 PM 47.12 43.16 39.02 55.04 46.04 73.0 Not Reported 5.37 S 3.13 S 7.83 S No 0.000 No Precipitation 05/15/2019 01:30 PM 05/15/2019 01:35 PM 0.000 0.008 0.008 0.165 0.205 Not Reported Not Reported
05/15/2019 10:50 PM 46.94 43.16 38.84 55.04 46.04 73.0 Not Reported 5.59 S 4.03 S 7.38 SE No 0.000 No Precipitation 05/15/2019 01:30 PM 05/15/2019 01:35 PM 0.000 0.008 0.008 0.165 0.205 Not Reported Not Reported
05/15/2019 10:55 PM 46.76 43.16 39.20 55.04 46.04 74.0 Not Reported 5.14 S 3.58 S 7.38 SE No 0.000 No Precipitation 05/15/2019 01:30 PM 05/15/2019 01:35 PM 0.000 0.008 0.008 0.165 0.205 Not Reported Not Reported
05/15/2019 11:00 PM 46.40 42.98 39.02 55.04 46.04 75.0 Not Reported 4.70 S 5.14 S 6.49 S No 0.000 No Precipitation 05/15/2019 01:30 PM 05/15/2019 01:35 PM 0.000 0.008 0.008 0.165 0.205 Not Reported Not Reported
05/15/2019 11:05 PM 46.40 42.98 39.38 55.04 46.04 76.0 Not Reported 5.14 S 3.58 S 6.49 S No 0.000 No Precipitation 05/15/2019 01:30 PM 05/15/2019 01:35 PM 0.000 0.008 0.008 0.161 0.205 Not Reported Not Reported
05/15/2019 11:10 PM 46.22 43.16 39.92 55.04 46.04 78.0 Not Reported 5.14 S 3.80 S 7.38 S No 0.000 No Precipitation 05/15/2019 01:30 PM 05/15/2019 01:35 PM 0.000 0.008 0.008 0.161 0.205 Not Reported Not Reported
05/15/2019 11:15 PM 46.22 43.16 40.10 55.04 46.04 79.0 Not Reported 4.47 S 5.14 S 7.38 S No 0.000 No Precipitation 05/15/2019 01:30 PM 05/15/2019 01:35 PM 0.000 0.008 0.008 0.154 0.205 Not Reported Not Reported
05/15/2019 11:20 PM 46.22 43.16 39.74 55.04 46.04 77.0 Not Reported 4.47 S 4.03 S 6.49 S No 0.000 No Precipitation 05/15/2019 01:30 PM 05/15/2019 01:35 PM 0.000 0.008 0.008 0.150 0.205 Not Reported Not Reported
05/15/2019 11:25 PM 46.40 42.98 39.74 55.04 46.04 77.0 Not Reported 5.37 S 5.14 SE 6.49 S No 0.000 No Precipitation 05/15/2019 01:30 PM 05/15/2019 01:35 PM 0.000 0.008 0.008 0.146 0.205 Not Reported Not Reported
05/15/2019 11:35 PM 45.86 43.34 40.82 55.04 45.86 82.0 Not Reported 3.36 S 3.58 S 6.71 S No 0.000 No Precipitation 05/15/2019 01:30 PM 05/15/2019 01:35 PM 0.000 0.008 0.008 0.142 0.205 Not Reported Not Reported
05/15/2019 11:40 PM 45.68 43.52 41.36 55.04 45.68 85.0 Not Reported 2.24 S 2.24 S 5.37 S No 0.000 No Precipitation 05/15/2019 01:30 PM 05/15/2019 01:35 PM 0.000 0.008 0.008 0.138 0.205 Not Reported Not Reported
05/15/2019 11:45 PM 45.50 43.70 41.90 55.04 45.50 87.0 Not Reported 3.36 S 3.36 S 5.37 S Yes 0.043 Rain Slight 05/15/2019 03:41 PM   0.004 0.008 0.008 0.138 0.205 Not Reported Not Reported
05/15/2019 11:50 PM 45.32 43.88 42.26 55.04 45.32 89.0 Not Reported 2.68 S 2.68 S 4.25 SE No 0.000 No Precipitation 05/15/2019 03:41 PM 05/15/2019 03:46 PM 0.004 0.008 0.008 0.134 0.205 Not Reported Not Reported
05/15/2019 11:55 PM 45.14 43.88 42.62 55.04 45.14 90.0 Not Reported 2.24 S 2.91 S 4.25 SE Yes 0.043 Rain Slight 05/15/2019 03:50 PM   0.008 0.016 0.016 0.130 0.209 Not Reported Not Reported